Wind_Speed
6 7 8 10 11 12 12 12 12 13 14 15 15 15 14 15 16 16 15 15 15 15 15 15 14 14 14 14 14 13 13 12 12 12 11 11 11 11 10 11 12 12 12 12
6 7 9 10 11 12 12 13 13 14 15 15 15 15 14 14 16 16 15 15 16 15 15 14 14 13 13 13 13 12 12 12 12 11 11 11 11 11 10 10 10 11 11 12
6 8 8 10 11 11 12 13 14 15 15 15 16 16 15 15 15 15 16 16 16 16 15 14 14 14 13 12 12 11 12 12 12 11 11 11 11 10 10 10 10 11 10 10
8 8 9 10 11 12 12 13 14 14 15 16 17 17 15 15 16 16 16 16 16 16 16 15 14 13 12 11 11 11 11 11 11 10 10 9 10 9 8 9 10 11 11 11
9 9 10 10 11 12 12 12 13 14 15 17 17 18 15 16 16 16 16 15 15 15 15 14 13 12 11 11 10 11 10 9 9 8 9 9 9 9 9 9 10 10 11 11
10 10 11 11 10 11 12 13 13 14 15 16 16 16 15 15 14 15 15 14 13 13 12 12 12 12 12 11 10 9 9 8 9 8 8 8 8 9 10 11 11 11 11 11
10 11 11 11 11 11 12 13 15 15 15 15 15 15 14 13 13 14 14 14 13 12 11 11 11 11 11 10 10 9 9 9 9 9 9 9 9 9 10 10 11 11 11 10
11 11 12 12 12 12 12 14 15 16 16 14 14 14 13 13 13 13 14 13 12 11 11 10 9 9 10 10 9 8 8 8 9 10 10 11 10 10 10 9 10 10 11 10
12 12 13 13 14 14 14 13 14 16 16 15 14 14 13 13 13 13 13 12 11 11 10 9 9 9 9 9 8 7 8 8 9 9 10 10 11 10 10 10 10 11 10 10
13 13 13 14 15 15 15 14 15 16 17 16 15 13 13 12 12 12 12 12 11 10 9 9 9 9 9 9 8 8 8 8 8 9 10 10 10 10 10 10 10 10 10 10
15 15 14 15 15 16 16 16 16 17 17 17 16 14 13 12 12 11 11 11 10 9 10 10 10 9 9 8 8 8 8 8 8 8 9 9 10 10 11 11 11 11 11 11
16 16 16 16 16 16 17 17 17 17 17 17 17 15 14 13 12 11 11 11 10 9 9 9 9 9 9 9 8 8 8 8 8 9 9 9 9 10 10 10 11 11 11 11
17 18 18 18 17 17 17 17 17 17 17 18 18 16 14 13 12 11 11 10 9 9 8 8 8 8 8 8 7 7 7 8 8 8 8 9 10 10 10 10 11 11 11 12
18 19 19 19 18 17 17 17 17 18 19 19 18 16 14 13 12 12 11 10 9 9 9 8 8 8 8 8 8 8 8 9 8 8 8 9 9 9 10 10 11 11 11 12
19 19 19 19 18 18 18 17 17 19 19 19 17 16 14 13 12 12 11 11 10 10 9 9 8 8 8 8 8 9 9 9 9 10 10 10 10 10 10 11 11 12 12 12
21 20 20 19 19 18 17 16 17 17 18 18 18 16 15 15 14 12 12 12 11 11 10 10 9 9 9 9 10 10 10 10 10 10 10 10 10 10 10 11 11 11 11 11
21 21 21 20 20 19 18 17 17 17 17 18 17 16 15 15 14 13 13 13 13 13 12 11 11 10 10 10 10 11 10 10 10 10 10 10 10 10 11 11 11 11 11 11
22 22 22 21 21 20 19 19 18 17 17 17 17 16 15 15 14 14 15 15 15 14 14 13 13 12 12 12 11 11 11 11 11 11 11 11 11 11 11 10 10 10 10 9
22 22 22 22 22 21 19 20 19 19 17 17 17 16 15 15 15 15 15 15 15 15 14 14 13 13 13 13 12 12 12 11 11 11 11 11 11 12 12 11 11 11 10 9
23 23 23 23 23 22 21 21 21 20 19 18 18 17 17 16 16 15 15 15 15 15 15 15 15 14 13 13 13 13 12 12 12 12 12 11 11 12 11 11 11 11 10 10
24 24 24 24 23 22 22 23 22 21 19 19 18 18 17 16 15 15 16 16 16 16 16 16 15 15 14 14 14 14 13 13 13 13 13 13 12 12 12 11 11 11 11 11
26 26 26 25 24 22 22 23 23 21 20 19 19 18 17 16 16 16 16 16 16 16 16 16 16 15 15 15 15 14 14 14 14 13 14 13 13 13 12 12 12 11 11 11
28 28 27 27 26 25 24 24 23 22 21 20 20 19 18 18 18 17 17 18 18 17 16 16 17 16 16 16 16 16 15 15 15 14 14 14 14 14 13 12 12 12 12 12
30 29 28 28 27 26 26 25 25 23 22 21 21 21 20 20 19 18 17 17 17 17 16 17 18 17 17 17 18 17 16 16 16 15 15 15 14 14 14 14 13 13 12 11
28 29 29 28 27 27 26 25 25 25 24 23 22 22 22 21 20 20 20 19 19 19 19 19 19 19 18 18 18 19 18 18 17 16 16 15 15 14 14 13 13 13 12 12
28 29 28 28 27 27 27 25 25 25 25 24 23 23 23 23 22 22 22 22 22 21 21 20 20 19 19 19 19 19 19 19 18 17 16 16 15 15 14 14 14 13 13 13
Wind_Direction
281 281 282 284 284 281 280 277 277 278 278 277 277 277 277 279 281 283 287 286 291 297 299 300 301 301 296 289 284 282 280 277 277 277 276 273 275 274 273 272 270 268 268 271
283 286 287 285 286 286 282 280 282 280 277 275 275 277 277 277 280 283 287 288 291 295 298 300 300 301 297 293 287 284 280 276 277 277 275 270 271 267 266 266 270 269 271 274
298 297 298 295 291 287 285 286 288 287 282 277 278 278 279 278 279 281 285 288 289 291 293 295 298 301 301 295 291 287 282 276 274 271 268 266 266 262 263 265 267 266 269 276
298 298 296 296 296 295 296 293 292 289 286 285 285 282 281 278 279 280 284 286 289 290 289 290 294 297 299 298 294 288 285 273 268 266 264 267 262 258 263 268 269 268 269 274
298 297 298 301 303 303 302 297 292 291 289 287 288 286 283 279 280 283 286 289 292 293 290 287 290 292 292 295 295 293 290 275 267 270 269 268 261 254 261 269 271 271 274 276
295 295 297 300 301 301 301 299 295 294 293 291 293 290 287 283 284 286 288 292 293 293 288 286 290 290 291 294 294 295 287 274 269 269 269 271 265 258 264 270 270 273 275 276
288 291 294 296 297 298 301 302 304 303 301 299 298 294 295 291 285 286 288 289 287 287 286 289 292 291 291 293 293 297 288 279 274 268 271 272 271 270 270 269 269 272 276 279
291 291 291 294 296 298 302 304 306 306 306 304 300 298 299 294 288 286 288 289 286 284 287 287 291 294 297 297 298 298 294 288 278 273 272 273 270 272 271 270 270 276 277 278
291 293 293 294 296 296 298 302 305 303 304 304 303 300 295 290 287 286 287 286 286 287 287 282 284 291 297 297 296 296 292 290 284 277 270 270 269 269 269 272 278 281 278 278
292 293 293 296 295 294 295 299 300 300 301 301 303 303 300 294 290 290 286 285 287 288 287 282 281 287 292 293 296 293 290 289 286 279 272 279 280 275 274 275 283 281 281 281
291 292 293 293 292 294 294 296 298 296 297 298 299 303 303 300 293 286 285 287 287 284 283 280 279 282 288 289 292 292 286 283 284 279 277 275 275 276 276 277 280 283 281 282
287 289 290 291 290 288 289 292 293 294 295 295 297 302 301 300 293 282 282 285 281 280 283 280 278 279 282 286 286 287 287 287 285 279 277 277 277 278 277 282 283 283 284 284
283 284 286 287 287 287 286 288 289 290 290 291 293 299 298 295 289 280 281 281 278 279 280 281 281 282 278 278 282 287 291 292 293 285 278 281 278 279 281 286 286 284 286 288
281 282 284 287 288 286 286 286 287 289 290 291 292 294 291 287 284 282 280 276 273 277 278 281 280 281 279 276 279 285 289 295 297 289 286 289 283 282 284 289 289 289 291 291
281 282 283 285 286 286 287 286 287 289 291 292 291 287 285 279 277 279 276 273 271 272 273 280 279 280 281 279 278 283 288 293 294 291 290 292 287 284 284 286 286 288 290 291
279 281 282 282 285 287 285 287 289 291 291 292 290 285 283 277 273 272 268 266 268 270 270 274 273 276 283 280 280 284 288 292 293 289 287 290 286 283 283 284 287 290 292 293
277 280 281 281 283 284 283 287 289 290 290 291 290 288 281 276 273 270 265 263 264 267 269 269 270 272 277 280 282 285 289 291 294 292 289 288 288 286 287 286 288 290 292 293
277 280 281 281 281 284 285 284 286 288 290 288 286 285 281 278 274 268 264 264 265 266 266 266 269 271 272 277 279 282 287 291 297 294 292 291 289 288 287 287 289 290 292 293
278 280 280 281 281 283 282 283 284 287 289 288 284 281 280 277 271 268 268 268 268 265 264 265 265 268 270 275 280 283 288 292 296 298 296 294 291 291 287 287 288 290 291 291
276 277 278 281 283 282 283 281 283 284 283 283 282 278 278 274 269 267 268 268 270 266 266 265 263 264 267 271 277 282 284 289 293 292 291 292 290 292 287 286 284 287 286 288
274 274 275 277 278 278 279 281 284 284 284 281 281 278 276 276 270 267 267 268 269 269 268 266 263 263 264 268 272 277 279 283 287 287 287 290 291 290 288 285 282 285 286 287
272 272 272 273 275 276 276 277 279 281 282 280 278 276 273 273 269 265 266 267 268 267 266 264 264 265 264 266 269 272 277 279 280 282 286 287 289 291 287 284 285 285 286 286
270 271 271 271 272 274 275 276 277 278 279 276 274 274 272 270 269 266 267 266 266 265 264 263 263 265 264 266 270 271 275 278 279 278 281 283 287 289 286 285 284 283 286 287
269 268 267 267 268 271 273 274 274 275 273 272 270 270 271 270 266 264 265 263 261 260 262 263 263 264 264 267 271 273 276 278 279 277 278 282 285 286 285 284 282 281 284 286
265 266 265 264 266 267 269 271 272 272 271 271 269 269 268 265 262 262 264 264 263 262 260 261 263 263 264 267 270 272 274 275 276 276 277 283 286 286 285 283 281 282 282 283
265 266 266 267 268 269 268 269 270 270 269 269 268 268 266 264 263 264 264 263 264 263 263 262 262 262 264 265 266 268 271 272 274 276 278 280 283 285 284 284 283 282 281 282
Height
5842 5843 5842 5841 5841 5840 5839 5839 5838 5838 5837 5836 5836 5835 5835 5834 5833 5833 5832 5832 5831 5830 5828 5827 5827 5825 5824 5824 5824 5823 5823 5823 5823 5823 5824 5824 5824 5824 5823 5823 5822 5822 5822 5822
5842 5841 5840 5839 5838 5837 5837 5836 5835 5834 5833 5833 5832 5832 5832 5831 5830 5829 5829 5828 5827 5826 5825 5825 5824 5823 5822 5821 5820 5820 5820 5820 5820 5820 5821 5821 5821 5821 5820 5820 5820 5820 5820 5820
5839 5839 5837 5836 5835 5835 5834 5833 5832 5831 5830 5829 5829 5829 5829 5828 5827 5826 5825 5824 5824 5823 5822 5821 5820 5820 5818 5818 5817 5817 5817 5816 5817 5817 5818 5818 5818 5817 5818 5818 5817 5817 5817 5817
5837 5836 5835 5834 5833 5832 5831 5830 5829 5827 5826 5826 5826 5825 5825 5824 5823 5822 5821 5821 5820 5819 5819 5818 5817 5816 5815 5814 5813 5813 5813 5813 5813 5814 5814 5814 5815 5815 5815 5815 5814 5814 5814 5814
5835 5834 5833 5832 5831 5830 5829 5827 5826 5824 5823 5822 5822 5821 5822 5820 5820 5819 5818 5817 5816 5816 5815 5814 5814 5813 5812 5811 5810 5810 5809 5809 5810 5811 5811 5812 5812 5812 5812 5812 5812 5811 5811 5811
5833 5832 5831 5830 5829 5828 5826 5825 5823 5822 5820 5820 5819 5818 5818 5817 5816 5815 5815 5814 5813 5813 5812 5811 5810 5809 5809 5808 5807 5806 5806 5806 5807 5808 5808 5809 5809 5809 5809 5809 5809 5809 5808 5808
5832 5831 5829 5828 5827 5826 5824 5823 5821 5819 5817 5817 5816 5814 5814 5813 5813 5812 5811 5811 5810 5809 5809 5808 5807 5806 5806 5805 5804 5804 5804 5804 5804 5805 5806 5806 5806 5806 5806 5806 5806 5806 5805 5805
5829 5829 5827 5826 5825 5823 5821 5820 5819 5816 5814 5814 5812 5810 5811 5810 5809 5808 5808 5807 5806 5806 5805 5805 5804 5803 5803 5802 5801 5801 5801 5801 5801 5802 5803 5803 5803 5803 5803 5803 5802 5802 5802 5802
5826 5826 5825 5823 5822 5821 5818 5817 5816 5814 5811 5810 5809 5809 5808 5807 5806 5805 5804 5804 5803 5803 5803 5802 5801 5801 5800 5799 5799 5798 5798 5798 5799 5799 5799 5800 5800 5799 5799 5799 5799 5799 5799 5798
5823 5822 5822 5820 5819 5818 5816 5814 5813 5811 5808 5807 5807 5805 5805 5804 5803 5802 5802 5801 5800 5800 5800 5800 5799 5798 5797 5797 5796 5796 5795 5796 5796 5796 5797 5796 5796 5796 5796 5796 5796 5796 5796 5795
5819 5819 5818 5817 5815 5814 5813 5812 5809 5807 5805 5804 5803 5805 5802 5801 5800 5799 5799 5798 5798 5797 5797 5797 5796 5796 5795 5795 5794 5793 5793 5793 5793 5793 5793 5793 5793 5793 5793 5793 5793 5793 5792 5792
5816 5815 5814 5813 5812 5810 5809 5808 5806 5805 5803 5801 5800 5802 5799 5798 5797 5796 5796 5795 5795 5795 5795 5794 5794 5794 5793 5792 5792 5791 5791 5791 5790 5790 5790 5790 5790 5790 5790 5790 5789 5789 5788 5788
5812 5811 5810 5809 5810 5807 5805 5804 5802 5801 5799 5798 5796 5799 5795 5794 5794 5793 5793 5793 5792 5792 5792 5792 5792 5791 5791 5790 5790 5789 5789 5788 5788 5787 5787 5787 5787 5787 5787 5786 5786 5785 5784 5784
5808 5806 5806 5805 5803 5802 5801 5800 5798 5797 5795 5794 5793 5793 5793 5791 5791 5790 5790 5790 5790 5790 5790 5790 5790 5789 5789 5789 5788 5788 5787 5786 5785 5785 5785 5785 5784 5784 5784 5783 5782 5781 5780 5780
5803 5802 5801 5800 5799 5797 5797 5795 5794 5792 5791 5790 5789 5789 5789 5788 5788 5787 5787 5787 5787 5788 5788 5788 5788 5787 5787 5787 5786 5786 5785 5784 5784 5783 5782 5782 5782 5781 5780 5779 5778 5777 5776 5776
5798 5797 5796 5795 5794 5793 5792 5791 5790 5789 5787 5786 5785 5785 5784 5784 5784 5784 5784 5784 5785 5785 5785 5785 5785 5785 5785 5785 5784 5783 5783 5782 5781 5780 5780 5779 5779 5778 5777 5776 5775 5773 5772 5772
5793 5792 5791 5790 5790 5788 5788 5788 5786 5785 5783 5782 5781 5781 5780 5780 5780 5780 5781 5781 5782 5782 5782 5782 5782 5782 5782 5782 5782 5781 5780 5780 5779 5778 5777 5776 5775 5774 5773 5772 5771 5770 5769 5768
5788 5786 5785 5785 5785 5784 5786 5783 5782 5781 5780 5778 5777 5776 5776 5776 5776 5776 5777 5778 5778 5779 5779 5779 5779 5779 5779 5779 5779 5778 5778 5777 5776 5775 5774 5773 5772 5771 5770 5769 5768 5767 5766 5765
5782 5781 5780 5779 5778 5778 5779 5778 5777 5776 5776 5775 5773 5773 5772 5772 5772 5772 5773 5774 5774 5775 5775 5776 5776 5776 5776 5776 5776 5775 5775 5774 5773 5772 5771 5770 5769 5768 5767 5766 5766 5765 5764 5763
5776 5775 5775 5774 5772 5772 5775 5773 5771 5772 5771 5770 5769 5768 5768 5768 5768 5769 5769 5769 5770 5771 5771 5772 5772 5772 5772 5773 5773 5772 5772 5771 5770 5769 5768 5768 5767 5766 5765 5764 5763 5762 5761 5760
5770 5769 5768 5767 5766 5767 5767 5766 5766 5767 5767 5765 5764 5764 5764 5764 5764 5765 5765 5765 5765 5766 5766 5767 5768 5768 5768 5769 5769 5769 5768 5768 5767 5766 5765 5764 5763 5762 5761 5760 5760 5759 5758 5758
5762 5762 5762 5761 5761 5763 5761 5760 5761 5761 5760 5760 5759 5759 5759 5759 5759 5760 5760 5760 5761 5761 5762 5762 5763 5763 5764 5765 5765 5765 5764 5764 5763 5762 5761 5760 5759 5759 5758 5757 5756 5756 5755 5754
5755 5755 5754 5755 5756 5755 5754 5754 5754 5754 5754 5754 5754 5754 5754 5755 5755 5755 5756 5756 5756 5757 5757 5758 5759 5759 5760 5760 5760 5760 5760 5760 5759 5758 5757 5757 5756 5755 5754 5753 5753 5752 5752 5751
5746 5746 5746 5747 5748 5748 5748 5747 5748 5748 5747 5748 5748 5748 5749 5749 5750 5750 5751 5751 5751 5752 5753 5754 5754 5754 5755 5755 5755 5755 5756 5755 5754 5754 5753 5753 5752 5751 5750 5749 5749 5748 5748 5747
5738 5738 5738 5739 5740 5740 5741 5741 5741 5741 5741 5741 5742 5742 5742 5743 5744 5745 5746 5746 5747 5747 5748 5748 5749 5749 5749 5750 5750 5750 5750 5750 5750 5749 5749 5748 5747 5747 5746 5745 5745 5744 5744 5743
5730 5731 5731 5732 5733 5733 5733 5733 5734 5734 5734 5735 5735 5735 5736 5736 5737 5738 5739 5740 5740 5741 5742 5742 5743 5743 5743 5744 5744 5744 5745 5745 5745 5744 5744 5743 5743 5742 5742 5741 5741 5740 5740 5739